Regional Weather Roundup
Issued by NWS

Home | Current Version | Previous Version | Graphics & Text | Print | Product List | Glossary On
Versions: 1 2 3 4 5 6 7 8 9 10 11 12 13 14 15 16 17 18 19 20 21 22 23 24 25 26 27 28 29 30 31 32 33 34 35 36 37 38 39 40 41 42 43 44 45 46 47 48 49 50
000
ASUS43 KTOP 301559
RWRKS

WEATHER ROUNDUP FOR KANSAS
NATIONAL WEATHER SERVICE GOODLAND KS
1100 AM CDT SAT AUG 30 2014

NOTE:  "FAIR" INDICATES FEW OR NO CLOUDS BELOW 12,000 FEET WITH NO
SIGNIFICANT WEATHER AND/OR OBSTRUCTIONS TO VISIBILITY.

KSZ001>006-013>018-027>032-041>047-301700-
NORTHWEST KANSAS

CITY           SKY/WX    TMP DP  RH WIND       PRES   REMARKS
GOODLAND       SUNNY     78  52  40 SW10      30.04F
HAYS           SUNNY     81  57  44 SE8       30.00S
HILL CITY      SUNNY     75  62  64 SE9       30.00F
RUSSELL        SUNNY     77  62  59 SE9       29.99S
$$

KSZ061>065-074>080-084>089-301700-
SOUTHWEST KANSAS

CITY           SKY/WX    TMP DP  RH WIND       PRES   REMARKS
DODGE CITY     SUNNY     83  52  34 VRB5      30.03S
ELKHART          N/A     75  59  57 SE8         N/A
GARDEN CITY    MOSUNNY   78  55  44 S5        30.04S
GREAT BEND     SUNNY     79  63  57 SE8       30.00F
LIBERAL        PTSUNNY   82  57  42 S6        30.06S
$$

KSZ066>073-081>083-090>101-301700-
SOUTHEAST KANSAS

CITY           SKY/WX    TMP DP  RH WIND       PRES   REMARKS
CHANUTE        SUNNY     83  68  60 VRB5      29.96S
COFFEYVILLE    SUNNY     83  68  60 NW3       29.95R
HUTCHINSON     SUNNY     83  63  50 NE6       29.99S
NEWTON         SUNNY     81  63  54 NE5       30.02R
PARSONS        SUNNY     84  69  60 CALM      29.97R
WICHITA INTL   MOSUNNY   83  66  56 NE5       29.97S
WICHITA JABRA  SUNNY     83  66  56 NE3       29.97S
WINFIELD       SUNNY     83  69  62 NE3       29.98R
$$

KSZ007>012-019>026-033>040-048>060-102>105-301700-
NORTHEAST KANSAS

CITY           SKY/WX    TMP DP  RH WIND       PRES   REMARKS
CONCORDIA      SUNNY     76  66  71 E5        29.98S
EMPORIA        SUNNY     81  66  60 N6        29.96S
LAWRENCE       SUNNY     83  70  64 VRB3      29.94S
MANHATTAN      SUNNY     80  66  62 E5        29.96S
OLATHE IND     SUNNY     80  67  64 W5        29.96R
OLATHE EXE     MOSUNNY   79  69  71 VRB5      29.95R
SALINA         SUNNY     80  64  58 NE3       29.98S
TOPEKA BILLARD SUNNY     80  70  71 CALM      29.95S
TOPEKA FORBES  SUNNY     81  66  60 VRB5      29.95S
$$


USA.gov is the U.S. government's official web portal to all federal, state and local government web resources and services.